Time,TemperatureF,DewpointF,PressureIn,WindDirection,WindDirectionDegrees,WindSpeedMPH,WindSpeedGustMPH,Humidity,HourlyPrecipIn,Conditions,Clouds,dailyrainin,SolarRadiationWatts/m^2,SoftwareType,DateUTC
2013-06-18 00:22:00,44.0,23.0,-100.00,NNE,12,0.0,0.0,43,-99.99,,,0.00,0.000000,,2013-06-18 07:22:00,
2013-06-18 00:33:00,44.0,23.0,-100.00,NNE,12,0.0,0.0,43,-99.99,,,0.00,0.000000,,2013-06-18 07:33:00,
2013-06-18 01:01:00,45.0,22.0,-100.00,NNE,15,0.0,0.0,39,0.00,,,0.00,0.000000,,2013-06-18 08:01:00,
2013-06-18 01:11:00,45.0,22.0,-100.00,NNE,15,0.0,0.0,39,0.00,,,0.00,0.000000,,2013-06-18 08:11:00,
2013-06-18 01:23:00,45.0,22.0,-100.00,NNE,15,0.0,0.0,39,0.00,,,0.00,0.000000,,2013-06-18 08:23:00,
2013-06-18 02:11:00,43.0,26.0,-100.00,SSE,166,0.0,0.0,50,-99.99,,,0.00,0.000000,,2013-06-18 09:11:00,
2013-06-18 02:22:00,43.0,26.0,-100.00,SSE,166,0.0,0.0,50,-99.99,,,0.00,0.000000,,2013-06-18 09:22:00,
2013-06-18 02:34:00,43.0,26.0,-100.00,SSE,166,0.0,0.0,50,-99.99,,,0.00,0.000000,,2013-06-18 09:34:00,
2013-06-18 03:02:00,44.0,28.0,-100.00,North,8,0.0,0.0,54,0.00,,,0.00,0.000000,,2013-06-18 10:02:00,
2013-06-18 03:11:00,44.0,28.0,-100.00,North,8,0.0,0.0,54,0.00,,,0.00,0.000000,,2013-06-18 10:11:00,
2013-06-18 03:22:00,44.0,28.0,-100.00,North,8,0.0,0.0,54,0.00,,,0.00,0.000000,,2013-06-18 10:22:00,
2013-06-18 03:33:00,44.0,28.0,-100.00,North,8,0.0,0.0,54,0.00,,,0.00,0.000000,,2013-06-18 10:33:00,
2013-06-18 04:02:00,44.0,21.0,-100.00,North,4,0.0,0.0,39,0.00,,,0.00,0.000000,,2013-06-18 11:02:00,
2013-06-18 04:11:00,44.0,21.0,-100.00,North,4,0.0,0.0,39,0.00,,,0.00,0.000000,,2013-06-18 11:11:00,
2013-06-18 04:32:00,44.0,21.0,-100.00,North,4,0.0,0.0,39,0.00,,,0.00,0.000000,,2013-06-18 11:32:00,
2013-06-18 05:01:00,42.0,16.0,-100.00,North,4,0.0,0.0,35,0.00,,,0.00,0.000000,,2013-06-18 12:01:00,
2013-06-18 05:11:00,42.0,16.0,-100.00,North,4,0.0,0.0,35,0.00,,,0.00,0.000000,,2013-06-18 12:11:00,
2013-06-18 05:22:00,42.0,16.0,-100.00,North,4,0.0,0.0,35,0.00,,,0.00,0.000000,,2013-06-18 12:22:00,
2013-06-18 05:32:00,42.0,16.0,-100.00,North,4,0.0,0.0,35,0.00,,,0.00,0.000000,,2013-06-18 12:32:00,
2013-06-18 06:02:00,41.0,14.0,-100.00,North,4,0.0,0.0,33,0.00,,,0.00,0.000000,,2013-06-18 13:02:00,
2013-06-18 06:11:00,41.0,14.0,-100.00,North,4,0.0,0.0,33,0.00,,,0.00,0.000000,,2013-06-18 13:11:00,
2013-06-18 06:22:00,41.0,14.0,-100.00,North,4,0.0,0.0,33,0.00,,,0.00,0.000000,,2013-06-18 13:22:00,
2013-06-18 06:33:00,41.0,14.0,-100.00,North,4,0.0,0.0,33,0.00,,,0.00,0.000000,,2013-06-18 13:33:00,
2013-06-18 07:02:00,46.0,13.0,-100.00,North,356,0.0,4.0,26,0.00,,,0.00,16.000000,,2013-06-18 14:02:00,
2013-06-18 07:22:00,46.0,13.0,-100.00,North,356,0.0,4.0,26,0.00,,,0.00,16.000000,,2013-06-18 14:22:00,
2013-06-18 08:02:00,60.0,16.0,-100.00,South,175,0.0,0.0,18,-99.99,,,0.00,66.000000,,2013-06-18 15:02:00,
2013-06-18 08:11:00,60.0,16.0,-100.00,South,175,0.0,0.0,18,-99.99,,,0.00,66.000000,,2013-06-18 15:11:00,
2013-06-18 08:22:00,60.0,16.0,-100.00,South,175,0.0,0.0,18,-99.99,,,0.00,66.000000,,2013-06-18 15:22:00,
2013-06-18 08:33:00,60.0,16.0,-100.00,South,175,0.0,0.0,18,-99.99,,,0.00,66.000000,,2013-06-18 15:33:00,
2013-06-18 11:02:00,83.0,5.0,-100.00,North,356,3.0,10.0,5,-99.99,,,0.00,1046.000000,,2013-06-18 18:02:00,
2013-06-18 11:11:00,83.0,5.0,-100.00,North,356,3.0,10.0,5,-99.99,,,0.00,1046.000000,,2013-06-18 18:11:00,
2013-06-18 11:22:00,83.0,5.0,-100.00,North,356,3.0,10.0,5,-99.99,,,0.00,1046.000000,,2013-06-18 18:22:00,
2013-06-18 13:01:00,84.0,6.0,-100.00,South,191,4.0,9.0,5,-99.99,,,0.00,1279.000000,,2013-06-18 20:01:00,
2013-06-18 14:01:00,85.0,2.0,-100.00,South,183,4.0,12.0,4,-99.99,,,0.00,1297.000000,,2013-06-18 21:01:00,
2013-06-18 18:01:00,71.0,4.0,-100.00,SSW,205,6.0,17.0,7,-99.99,,,0.00,684.000000,,2013-06-19 01:01:00,
2013-06-18 23:01:00,52.0,14.0,-100.00,West,273,0.0,10.0,22,0.00,,,0.00,0.000000,,2013-06-19 06:01:00,
2013-06-18 23:21:00,52.0,14.0,-100.00,West,273,0.0,10.0,22,0.00,,,0.00,0.000000,,2013-06-19 06:21:00,
2013-06-18 23:33:00,52.0,14.0,-100.00,West,273,0.0,10.0,22,0.00,,,0.00,0.000000,,2013-06-19 06:33:00,